Regional Weather Roundup
Issued by NWS

Home | Current Version | Previous Version | Text Only | Print | Product List | Glossary On
Versions: 1 2 3 4 5 6 7 8 9 10 11 12 13 14 15 16 17 18 19 20 21 22 23 24 25 26 27 28 29 30 31 32 33 34 35 36 37 38 39 40 41 42 43 44 45 46 47 48 49 50
000
ASUS45 KABQ 262310
RWRNM
NEW MEXICO REGIONAL WEATHER ROUNDUP
NATIONAL WEATHER SERVICE ALBUQUERQUE NM
500 PM MDT THU MAY 26 2016

NOTE: "FAIR" MEANS FEW OR NO CLOUDS BELOW 12,000 FEET AGL WITH NO
       SIGNIFICANT WEATHER OR OBSTRUCTIONS TO VISION.

      THIS PRODUCT IS RELEASED AS TWO VERSIONS.  ONE VERSION NEAR
      THE TOP OF THE HOUR CONTAINING PRELIMINARY DATA FROM ALBUQUERQUE
      AND OTHER STATIONS.  A FINAL VERSION WITH ADDITIONAL DATA IS
      ISSUED ABOUT 10 MINUTES AFTER THE HOUR.

NMZ501-503-504-510>518-270000-
NORTHWEST PLATEAU/NORTHCENTRAL MOUNTAINS

CITY           SKY/WX    TMP DP  RH WIND       PRES   REMARKS
FARMINGTON     FAIR      70  12  10 W17G25    29.84F
LOS ALAMOS     PTSUNNY   60  13  15 W17G37    29.93S
SANTA FE       PTSUNNY   65  14  14 W10       29.87F
TAOS           FAIR      61  19  20 W28G37    29.91R
ANGEL FIRE     FAIR      56  20  24 SW24G32   29.92S

$$
NMZ402-403-502-505>509-270000-
WESTCENTRAL MOUNTAINS/SOUTHWEST MOUNTAINS

CITY           SKY/WX    TMP DP  RH WIND       PRES   REMARKS
GALLUP         FAIR      61  17  18 W10G26    29.96F
GRANTS         PTSUNNY   64  13  13 W20G31    29.97F
SILVER CITY      N/A     72  10   9 W16G37    29.96F

$$
NMZ407-409-411-412-270000-
SOUTHERN DESERTS

CITY           SKY/WX    TMP DP  RH WIND       PRES   REMARKS
LORDSBURG      FAIR      77  14   9 W23G30    29.90F
DEMING         FAIR      79  17  10 W14       29.87F
LAS CRUCES     FAIR      79  14   8 W24G32    29.88S
HOLLOMAN AFB   FAIR      81  10   7 W21G33    29.82F
ALAMOGORDO     FAIR      81  16   9 SW15G31   29.84F
T OR C         FAIR      77   6   6 W17G25    29.84F

$$
NMZ519>523-270000-
CENTRAL VALLEYS/CENTRAL HIGHLANDS

CITY           SKY/WX    TMP DP  RH WIND       PRES   REMARKS
ALBUQUERQUE    PTSUNNY   71   5   7 W25G35    29.85S
DOUBLE EAGLE   MOSUNNY   68   9  10 W25G37    29.89S
MORIARTY ARPT  FAIR      70   4   7 SW20G32   29.88S
CLINES CORNERS FAIR      63   9  12 W25G33    29.89F
BELEN          FAIR      74   8   7 W18G33    29.86S
SOCORRO        FAIR      76   7   7 NW17G26   29.82S

$$
NMZ524>526-539-540-270000-
SOUTHCENTRAL MOUNTAINS

CITY           SKY/WX    TMP DP  RH WIND       PRES   REMARKS
RUIDOSO          N/A     66  10  11 SW28G35   29.96F

$$
NMZ527>531-270000-
NORTHEAST HIGHLANDS/NORTHEAST PLAINS

CITY           SKY/WX    TMP DP  RH WIND       PRES   REMARKS
LAS VEGAS      FAIR      67   7   9 SW16G33   29.86F
RATON          FAIR      69  19  15 W9        29.76S
CLAYTON        FAIR      80  16   9 S28G35    29.72F

$$
NMZ532>537-270000-
EASTCENTRAL PLAINS

CITY           SKY/WX    TMP DP  RH WIND       PRES   REMARKS
TUCUMCARI      FAIR      85   8   5 SW31G37   29.71F
CANNON AFB     SUNNY     84  14   7 SW24G36   29.74F
CLOVIS AIRPORT FAIR      84  23  10 SW24G39   29.74F

$$
NMZ028-029-538-270000-
SOUTHEAST PLAINS

CITY           SKY/WX    TMP DP  RH WIND       PRES   REMARKS
ROSWELL        FAIR      87  16   7 SW21G35   29.74F
ARTESIA        FAIR      88  25  10 SW25G33   29.76F
CARLSBAD       FAIR      91  23   8 W23G35    29.72F
HOBBS          SUNNY     90  18   7 SW29G37   29.74F


$$



USA.gov is the U.S. government's official web portal to all federal, state and local government web resources and services.